Torna al catalogo

STARLINK-37348

AttivoComunicazioniSSO
NORAD 68737·PAYLOAD·🇺🇸 United States

Lanciato Apr 15, 2026 da Vandenberg Space Force Base

Loading…

Prossimi Passaggi (prossime 24 ore)

TLE

AggiornatoSource: CelesTrak SupGP

Epoca: Sep 15, 2026, 03:30 UTC

1 68737C 26082K   26258.14631944 -.00002848  00000+0 -88390-4 0  2587
2 68737  97.2849 120.3508 0002093  95.0174 265.3146 15.33446995    18

Traccia STARLINK-37348 in tempo reale con AllMySat

Download on the App Store